SCP
0 0 0 0 0 0 0 0 0 0 0 0 0 0 0 0 0 0 0 0 0 0 0 0 0 0 0 0 0 0 0 1 2 3 4 3 3 2 1 1 0 0 0 0
0 0 0 0 0 0 0 0 0 0 0 0 0 0 0 0 0 0 0 0 0 0 0 0 0 0 0 0 0 0 0 1 2 3 3 3 3 2 1 1 0 0 0 0
0 0 0 0 0 0 0 0 0 0 0 0 0 0 0 0 0 0 0 0 0 0 0 0 0 0 0 0 0 0 0 1 1 2 3 3 2 1 1 1 0 0 0 0
0 0 0 0 0 0 0 0 0 0 0 0 0 0 0 0 0 0 0 0 0 0 0 0 0 0 0 0 0 0 0 0 1 1 2 2 1 1 1 1 0 0 0 0
0 0 0 0 0 0 0 0 0 0 0 0 0 0 0 0 0 0 0 0 0 0 0 0 0 0 0 0 0 0 0 0 0 1 1 2 1 1 0 0 0 0 0 0
0 0 0 0 0 0 0 0 0 0 0 0 0 0 0 0 0 0 0 0 0 0 0 0 0 0 0 0 0 0 0 0 0 1 1 1 1 0 0 0 0 0 0 0
0 0 0 0 0 0 0 0 0 0 0 0 0 0 0 0 0 0 0 0 0 0 0 0 0 0 0 0 0 0 0 0 0 0 1 1 1 0 0 0 0 0 0 0
0 0 0 0 0 0 0 0 0 0 0 0 0 0 0 0 0 0 0 0 0 0 0 0 0 0 0 0 0 0 0 0 0 0 0 0 0 0 0 0 0 0 0 0
0 0 0 0 0 0 0 0 0 0 0 0 0 0 0 0 0 0 0 0 0 0 0 0 0 0 0 0 0 0 0 0 0 0 0 0 0 0 0 0 0 0 0 0
0 0 0 0 0 0 0 0 0 0 0 0 0 0 0 0 -0 -0 -0 -0 0 0 0 0 0 0 0 0 0 0 0 0 0 0 0 0 0 0 0 0 0 0 0 0
0 0 0 0 0 0 0 0 0 0 0 0 0 0 0 0 -0 -0 -0 0 0 0 0 0 0 0 0 0 0 0 0 0 0 0 0 0 0 0 0 0 0 0 0 0
0 0 0 0 0 0 0 0 0 0 0 0 0 0 0 0 -0 -0 0 0 0 0 0 0 0 0 0 0 0 0 0 0 0 0 0 0 0 0 0 0 0 0 0 0
0 0 0 0 0 0 0 0 0 0 0 0 0 0 0 0 -0 0 0 0 0 0 0 0 0 0 0 0 0 0 0 0 0 0 0 0 0 0 0 0 0 0 0 0
0 0 0 0 0 0 0 0 0 0 0 0 0 0 0 0 0 0 0 0 0 0 0 0 0 0 0 0 0 0 0 0 0 0 0 0 0 0 0 0 0 0 0 0
0 0 0 0 0 0 0 0 0 0 0 0 0 0 0 0 0 0 0 0 0 0 0 0 0 0 0 0 0 0 0 0 0 0 0 0 0 0 0 0 0 0 0 0
0 0 0 0 0 0 0 0 0 0 0 0 0 0 0 0 0 0 0 0 0 0 0 0 0 0 0 0 0 0 0 0 0 0 0 0 0 0 0 0 0 0 0 0
0 0 0 0 0 0 0 0 0 0 0 0 0 0 0 0 0 0 0 0 0 0 0 0 0 0 0 0 -0 -0 0 0 0 0 0 0 0 0 0 0 0 0 0 0
0 0 0 0 0 0 0 0 0 0 0 0 0 0 0 0 0 0 0 0 0 0 0 0 0 0 0 0 -0 -0 0 0 0 0 0 0 0 0 0 0 0 0 0 0
0 0 0 0 0 0 0 0 0 0 0 0 0 0 0 0 0 0 0 0 0 0 0 0 0 0 0 0 0 0 0 0 0 0 0 0 0 0 0 0 0 0 0 0
0 0 0 0 0 0 0 0 0 0 0 0 0 0 0 0 0 0 0 0 0 0 0 0 0 0 0 0 0 0 0 0 0 0 0 0 0 0 0 0 0 0 0 0
0 0 0 0 0 0 0 0 -0 0 0 0 0 0 0 0 0 0 0 0 0 0 0 0 0 0 0 0 0 0 0 0 0 0 0 0 0 0 0 0 0 0 0 0
0 0 0 0 0 0 0 0 -0 -0 0 0 0 0 0 0 0 0 0 0 0 0 0 0 0 -0 -0 -0 -0 0 0 0 0 0 0 0 0 0 0 0 0 0 0 0
0 0 0 0 0 0 0 0 -0 -0 -0 0 0 0 0 0 0 0 0 0 0 0 -0 -0 -0 -0 -0 -0 -0 0 0 0 0 0 0 0 0 0 0 0 0 0 0 0
0 0 0 0 0 0 0 0 0 0 0 0 0 0 0 0 0 0 0 0 0 -0 -0 -0 -0 -0 -0 -0 -0 0 0 0 0 0 -0 0 0 0 0 0 0 0 0 0
0 0 0 0 0 0 0 0 0 0 0 0 0 0 0 0 0 -0 0 0 -0 -0 -0 -0 -0 -0 -0 -0 -0 0 0 0 0 0 0 0 0 0 0 0 0 0 0 0
0 0 0 0 0 0 0 0 0 0 0 0 0 0 0 0 0 -0 -0 -0 -0 -0 -0 -0 -0 -0 -0 -0 -0 0 -0 -0 -0 0 0 0 0 0 0 0 0 0 0 0
Wind_Speed
5 4 7 9 8 5 4 2 3 4 3 4 6 9 13 10 9 12 14 14 14 15 12 8 8 8 8 8 8 9 12 13 11 9 10 10 10 9 9 8 10 11 10 11
5 5 5 6 5 4 2 3 4 4 4 4 7 13 13 13 13 16 18 18 17 14 11 10 9 8 8 8 8 8 10 12 13 12 12 10 10 7 8 7 9 11 12 12
5 4 6 6 4 5 3 3 2 3 6 5 7 11 7 9 8 11 14 15 15 15 15 12 10 10 9 9 9 8 10 11 11 11 6 4 3 3 2 5 7 8 11 12
4 2 5 6 4 5 2 1 2 2 4 5 4 8 10 8 10 9 9 9 11 12 12 10 10 10 10 10 9 9 9 10 10 10 10 11 10 9 9 8 7 7 9 10
4 4 5 5 4 5 4 4 4 3 2 4 2 4 13 7 7 9 8 8 9 9 8 8 8 9 9 8 7 7 8 8 9 10 13 14 10 7 5 5 7 7 6 8
2 2 4 4 3 5 6 5 5 4 3 5 5 6 11 6 6 7 8 7 6 5 4 4 5 4 4 4 4 4 5 7 7 10 12 14 12 10 10 9 9 7 5 5
3 2 2 4 5 3 5 5 3 2 2 7 4 5 12 12 10 8 10 8 6 4 3 3 4 3 3 4 4 3 4 6 7 9 11 12 14 16 16 14 12 11 8 6
6 4 5 4 4 5 5 7 6 4 4 6 3 7 10 10 8 6 4 4 5 5 4 4 4 4 4 5 4 3 4 6 6 8 10 10 12 11 9 11 12 11 8 7
6 2 2 4 4 7 6 4 4 3 1 4 7 8 11 5 3 5 7 8 9 8 8 7 6 5 5 5 5 5 5 6 6 7 8 8 10 10 10 10 8 7 7 8
5 5 4 4 3 1 4 5 4 4 2 5 7 6 6 5 5 6 7 9 10 10 10 9 8 7 6 6 6 5 5 6 6 6 7 7 8 9 11 11 11 10 10 10
3 6 4 4 5 7 4 3 4 4 4 3 6 9 6 3 4 5 7 9 10 11 11 10 9 9 8 7 6 5 4 4 4 6 7 9 8 8 10 10 11 11 11 12
3 5 3 3 3 6 6 5 6 4 4 4 3 12 7 6 6 7 11 13 14 14 12 11 10 9 8 7 6 6 4 4 5 6 8 9 9 10 10 10 11 12 12 12
4 5 4 1 2 3 4 5 6 4 3 4 5 12 5 5 11 13 15 16 15 14 14 12 9 8 7 7 6 5 3 3 4 7 9 10 10 10 10 11 12 12 13 12
5 4 5 7 4 5 5 6 8 7 5 5 11 16 17 16 17 17 14 13 13 13 12 11 9 7 6 5 4 2 0 3 6 7 9 10 10 10 11 12 12 12 13 13
5 3 4 5 5 4 6 7 9 12 11 9 11 13 21 19 17 14 11 12 13 12 11 10 7 5 4 4 5 4 5 5 7 9 9 9 10 11 12 12 12 12 13 13
4 2 1 4 5 6 8 11 12 13 14 16 19 22 19 13 9 8 9 11 12 12 11 9 5 4 4 4 5 7 7 8 9 11 10 10 12 13 13 13 13 14 13 13
4 3 1 3 4 4 8 10 12 8 9 10 14 12 10 12 10 6 7 9 10 11 9 7 5 4 5 6 7 8 8 10 11 12 12 12 13 14 14 14 14 14 13 13
6 4 1 3 4 5 5 2 6 7 9 10 10 10 10 10 4 1 4 7 9 9 8 6 6 6 7 7 9 10 10 11 12 13 13 13 14 14 14 14 14 12 10 10
5 5 2 2 3 7 7 4 4 4 7 6 8 9 8 5 1 1 4 5 6 7 6 6 6 7 8 8 9 11 12 12 13 13 13 13 13 14 13 13 12 9 9 7
4 4 3 2 3 5 5 3 1 1 5 4 5 7 6 4 3 2 4 5 5 7 7 7 7 9 9 9 10 12 12 12 12 12 12 12 12 12 12 11 9 7 6 6
5 5 5 5 4 7 7 4 2 1 5 4 4 5 3 2 2 1 3 4 5 6 7 7 8 8 8 8 10 12 12 11 11 11 11 11 10 11 10 8 7 6 5 5
8 6 6 5 6 8 5 2 3 6 4 4 3 3 2 3 4 4 3 4 4 5 6 7 7 8 7 8 10 12 11 9 10 11 11 10 9 8 7 7 6 5 5 5
7 8 6 8 9 6 3 4 3 2 4 3 2 2 4 6 5 4 4 4 5 5 5 6 7 7 7 7 8 11 9 9 10 10 10 8 8 7 6 6 6 4 4 4
3 4 3 5 8 7 6 4 3 2 3 3 3 3 5 6 7 6 5 5 5 6 6 6 7 7 7 7 8 8 8 8 9 10 8 7 7 6 5 4 4 4 4 4
4 2 3 5 7 5 4 4 3 2 2 2 0 2 6 8 8 7 6 6 5 6 6 6 7 7 7 7 7 7 7 8 9 8 7 6 6 5 5 4 4 4 2 3
4 5 5 6 6 4 5 3 3 3 3 2 2 3 5 7 8 7 6 6 6 6 6 7 7 8 7 7 7 6 6 7 8 7 6 4 4 4 4 4 4 6 4 6
Wind_Direction
147 156 184 186 186 171 149 171 255 265 328 332 278 272 272 270 265 264 264 261 258 259 261 261 254 250 251 249 229 212 209 208 199 191 187 188 194 194 193 193 189 181 172 167
129 196 189 172 193 219 247 277 282 295 341 334 292 282 271 259 249 246 251 255 257 260 266 261 254 250 244 244 241 223 212 210 204 200 195 193 190 190 192 187 185 181 174 170
141 176 166 162 179 194 209 217 243 294 338 354 335 297 277 277 264 256 250 250 252 251 254 256 253 250 246 241 235 231 217 211 208 203 188 154 121 99 149 181 186 184 176 172
135 153 151 159 172 151 170 82 135 36 20 320 11 303 293 291 304 291 279 266 256 253 252 251 250 250 247 244 238 233 226 215 206 195 183 176 180 181 189 184 179 170 173 172
166 150 127 144 154 136 145 100 79 69 56 326 270 249 284 304 291 291 292 284 270 262 254 254 252 247 251 251 249 242 236 227 209 196 191 191 194 182 159 152 152 156 160 165
129 143 138 146 114 122 123 68 42 49 58 288 229 197 280 269 255 299 314 313 300 287 277 269 268 262 261 259 252 248 238 236 218 201 195 196 185 161 154 159 161 157 150 153
117 95 113 116 108 97 101 89 43 338 260 258 220 208 255 261 265 271 289 304 310 313 320 310 305 293 275 267 257 252 243 240 223 206 200 198 184 173 173 171 169 164 162 166
145 186 192 150 147 153 146 138 164 206 242 287 286 238 256 267 285 290 296 311 330 334 326 308 292 283 283 280 272 261 250 245 227 208 203 193 180 176 175 172 168 172 171 161
148 187 146 152 134 134 146 175 163 127 325 284 280 287 294 280 335 2 2 358 344 330 322 310 301 292 280 273 262 253 248 247 228 207 193 179 171 168 164 160 151 146 139 140
136 124 132 123 110 118 133 145 118 135 187 280 290 272 260 299 333 348 352 346 336 330 323 313 305 292 282 271 266 266 251 237 221 191 177 168 165 159 153 150 149 147 144 144
87 116 133 137 176 184 160 165 152 149 166 192 290 275 231 260 300 318 323 321 319 317 311 305 301 298 291 285 277 272 265 239 202 179 160 148 148 144 145 148 148 145 142 144
134 114 146 222 242 179 168 180 154 163 223 202 234 273 269 270 287 309 316 316 313 309 303 297 292 293 292 291 287 275 258 219 188 164 145 141 139 140 140 139 140 139 139 139
135 115 103 9 318 172 195 191 180 164 171 200 226 263 288 314 314 313 314 314 312 310 307 302 297 292 290 292 291 279 255 201 152 138 136 133 134 135 134 134 134 134 133 131
116 123 165 183 197 179 204 199 189 182 208 230 234 263 288 299 304 308 312 314 312 310 309 307 305 304 305 303 308 310 51 118 122 123 127 128 129 129 128 127 128 129 128 126
108 152 209 240 241 216 216 215 202 206 213 230 254 267 283 294 300 308 317 320 320 321 321 318 319 329 338 350 12 37 62 78 99 106 108 112 113 115 116 116 118 117 116 114
104 134 267 285 262 234 241 236 225 228 232 243 261 275 278 285 297 315 328 329 328 327 327 328 335 356 18 30 46 59 67 72 84 93 96 101 105 106 106 107 107 105 104 104
136 146 204 280 308 324 263 231 209 209 215 221 246 257 284 301 311 326 331 331 330 330 335 344 360 31 50 55 64 68 72 78 84 88 92 93 97 98 98 100 98 98 98 98
144 151 181 288 329 253 247 250 188 214 240 231 245 266 284 296 303 60 358 338 339 345 355 12 31 48 56 66 73 77 79 83 86 87 88 91 94 95 95 94 94 94 95 99
150 153 192 252 281 280 285 251 202 229 272 240 242 268 285 308 273 171 26 8 359 2 14 32 45 59 66 73 81 86 84 85 88 90 92 93 97 97 96 96 96 96 99 102
154 143 189 229 267 261 259 261 192 163 277 252 239 267 290 322 300 314 28 27 25 28 35 47 57 65 69 72 83 87 86 87 88 91 93 94 97 100 100 100 100 100 106 113
177 191 211 222 249 268 258 258 127 230 267 272 249 259 263 233 222 98 69 59 54 53 55 59 64 67 69 79 88 90 89 89 94 95 94 92 94 99 103 103 104 110 109 106
182 190 197 194 218 253 260 188 206 242 272 280 266 245 196 151 127 117 100 90 86 77 73 74 77 72 67 80 93 94 90 91 94 94 94 94 95 99 102 104 100 99 105 101
196 196 190 200 221 240 249 233 251 265 273 270 255 223 154 150 153 139 124 113 109 105 96 92 92 86 76 79 94 100 99 101 101 99 98 98 95 92 96 102 104 96 93 96
241 193 207 245 258 260 261 250 252 248 254 266 253 196 164 158 152 144 134 124 119 115 111 107 102 97 91 91 96 103 111 111 108 106 103 101 98 91 82 83 90 96 98 97
238 192 225 257 274 288 268 234 231 238 251 267 238 159 159 150 151 147 139 133 127 120 115 111 110 109 107 107 106 110 116 116 109 102 97 93 90 93 85 76 81 96 102 131
225 200 203 236 243 235 261 252 207 214 227 208 151 126 140 149 148 142 138 133 129 125 121 118 117 117 115 112 107 104 105 112 113 107 98 93 92 87 86 86 67 67 81 78